SCP
0 0 1 1 1 1 1 1 1 1 0 0 0 0 0 0 0 0 0 0 0 0 0 0 0 0 0 0 0 0 0 0 0 0 0 0 0 0 0 0 0 0 0
0 0 0 1 1 1 1 1 1 1 0 0 0 0 0 0 0 0 0 0 0 0 0 0 0 0 0 0 0 0 0 0 0 0 0 0 0 0 0 0 0 0 0
0 0 0 1 1 1 1 1 1 0 0 0 0 0 0 0 0 0 0 0 0 0 0 0 0 0 0 0 0 0 0 0 0 0 0 0 0 0 0 0 0 0 0
0 0 0 0 1 1 1 1 1 0 0 0 0 0 0 0 0 0 0 0 0 0 0 0 0 0 0 0 0 0 0 0 0 0 0 0 0 0 0 0 0 0 0
0 0 0 1 1 1 1 1 1 0 0 0 0 0 0 0 0 0 0 0 0 0 0 0 0 0 0 0 0 0 0 0 0 0 0 0 0 0 0 0 0 0 0
0 0 0 1 1 1 1 1 1 0 0 0 0 0 0 0 0 0 0 0 0 0 0 0 0 0 0 0 0 0 0 0 0 0 0 0 0 0 0 0 0 0 0
0 0 0 1 1 1 1 1 1 0 0 0 0 0 0 0 0 0 0 0 0 0 0 0 0 0 0 0 0 0 0 0 0 0 0 0 0 0 0 0 0 0 0
0 0 0 1 1 1 0 0 0 0 0 0 0 0 0 0 0 0 0 0 0 0 0 0 0 0 0 0 0 0 0 0 0 0 0 0 0 0 0 0 0 0 0
0 0 0 0 0 0 0 0 0 0 0 0 0 0 0 0 0 0 0 0 0 0 0 0 0 0 0 0 0 0 0 0 0 0 0 0 0 0 0 0 0 0 0
0 0 0 0 0 0 0 0 0 0 0 0 0 0 0 0 0 0 0 0 0 0 0 0 0 0 0 0 0 0 0 0 0 0 0 0 0 0 0 0 0 0 0
0 0 0 0 0 0 0 0 0 0 0 0 0 0 0 0 0 0 0 0 0 0 0 0 0 0 0 0 0 0 0 0 0 0 0 0 0 0 0 0 0 0 0
0 0 0 0 0 0 0 0 0 0 0 0 0 0 0 0 0 0 0 0 0 0 0 0 0 0 0 0 0 0 0 0 0 0 0 0 0 0 0 0 0 0 0
0 0 0 0 0 0 0 0 0 0 0 0 0 0 0 0 0 0 0 0 0 0 0 0 0 0 0 0 0 0 0 0 0 0 0 0 0 0 0 0 0 0 0
1 1 1 0 0 0 0 0 0 0 0 0 0 0 0 0 0 0 0 0 0 0 0 0 0 0 0 0 0 0 0 0 0 0 0 0 0 0 0 0 0 0 0
1 1 1 1 0 0 0 0 0 0 0 0 0 0 0 0 0 0 0 0 0 0 0 0 0 0 0 0 0 0 0 0 0 0 0 0 0 0 0 0 0 0 0
1 1 1 1 1 0 0 0 0 0 0 0 0 0 0 0 0 0 0 0 0 0 0 0 0 0 0 0 0 0 0 0 0 0 0 0 0 0 0 0 0 0 0
1 1 1 1 1 0 0 0 0 0 0 0 0 0 0 0 0 0 0 0 0 0 0 0 0 0 0 0 0 0 0 0 0 0 0 0 0 0 0 0 0 0 0
1 1 1 1 0 0 0 0 0 0 0 0 0 0 0 0 0 0 0 0 0 0 0 0 0 0 0 0 0 0 0 0 0 0 0 0 0 0 0 0 0 0 0
1 1 1 1 0 0 0 0 0 0 0 0 0 0 0 0 0 0 0 0 0 0 0 0 0 0 0 0 0 0 0 0 0 0 0 0 0 0 0 0 0 0 0
1 1 1 1 1 1 0 0 0 0 0 0 0 0 0 0 0 0 0 0 0 0 0 0 0 0 0 0 0 0 0 0 0 0 0 0 0 0 0 0 0 0 0
1 1 1 1 1 1 1 1 1 1 0 0 0 0 0 0 0 0 0 0 0 0 0 0 0 0 0 0 0 0 0 0 0 0 0 0 0 0 0 0 0 0 0
1 1 1 1 1 1 1 1 1 1 0 0 0 0 0 0 0 0 0 0 0 0 0 0 0 0 0 0 0 0 0 0 0 0 0 0 0 0 0 0 0 0 0
1 1 1 1 1 1 1 1 1 0 0 0 0 0 0 0 0 0 0 0 0 0 0 0 0 0 0 0 0 0 0 0 0 0 0 0 0 0 0 0 0 0 0
1 1 1 1 1 1 1 1 1 1 0 0 0 0 0 0 0 0 0 0 0 0 0 0 0 0 0 0 0 0 0 0 0 0 0 0 0 0 0 0 0 0 0
1 1 1 1 1 1 1 1 1 0 0 0 0 0 0 0 0 0 0 0 0 0 0 0 0 0 0 0 0 0 0 0 0 0 0 0 0 0 0 0 0 0 0
1 1 1 1 1 1 1 1 0 0 0 0 0 0 0 0 0 0 0 0 0 0 0 0 0 0 0 0 0 0 0 0 0 0 0 0 0 0 0 0 0 0 0
Wind_Speed
6 7 13 13 14 14 13 13 13 13 13 13 13 13 13 13 13 13 12 12 11 11 12 11 11 11 11 10 10 11 11 10 10 11 12 12 12 13 13 13 11 8 12
10 9 14 14 14 14 14 13 13 12 12 12 13 13 13 13 12 12 12 11 11 11 11 11 11 10 10 9 9 10 10 10 10 10 12 11 12 13 12 12 11 7 12
13 10 12 14 14 14 14 13 13 12 12 12 12 12 12 12 12 12 11 10 10 11 11 10 10 9 9 8 9 9 9 9 9 10 10 6 8 12 13 14 13 11 11
13 9 11 15 14 14 14 13 12 12 12 12 12 12 12 12 12 11 11 11 11 10 10 9 9 8 8 7 8 8 8 8 8 9 5 4 5 12 13 13 13 12 11
11 9 12 16 14 14 14 13 12 12 11 11 11 11 11 11 11 11 11 11 10 10 9 8 7 7 6 6 6 7 7 8 8 7 5 4 4 11 13 13 12 12 12
11 9 12 17 15 14 14 13 12 12 11 11 11 11 10 10 10 10 10 10 9 9 8 8 6 6 5 4 5 6 6 8 7 4 4 4 4 10 13 13 12 12 12
11 8 11 16 15 14 14 13 12 12 11 11 10 10 10 9 9 9 9 8 8 7 7 6 6 5 4 4 5 6 6 7 5 4 4 4 5 11 12 12 12 12 12
13 10 10 16 16 14 14 13 13 12 11 10 10 9 9 9 8 8 8 8 7 6 6 5 4 4 4 4 5 5 6 7 6 5 4 4 8 11 12 12 11 11 11
12 10 8 9 11 13 13 13 12 11 10 10 9 9 9 8 8 8 8 7 7 6 5 4 4 4 3 3 3 4 5 7 4 3 5 3 8 11 12 12 11 11 11
9 9 8 7 7 7 8 12 12 11 10 10 9 9 9 8 8 8 7 7 7 6 4 4 4 3 2 2 2 3 4 6 3 3 3 5 9 11 12 12 11 11 11
9 7 7 7 6 6 6 9 10 10 9 8 7 8 7 3 3 4 6 7 7 6 5 5 4 2 1 0 1 2 2 2 4 3 3 7 10 11 12 12 11 11 10
10 9 7 8 8 6 6 5 4 4 4 4 3 3 3 2 2 4 6 8 7 5 5 5 4 2 1 1 0 1 1 2 3 3 4 10 11 11 11 10 10 10 10
10 9 9 8 8 7 5 4 3 2 2 3 3 3 2 2 2 2 1 2 2 3 1 1 1 1 1 1 1 1 2 2 2 2 4 10 11 11 11 10 9 9 9
10 10 9 9 8 7 5 4 4 3 3 3 3 4 3 2 2 2 1 1 1 1 2 1 1 1 1 1 2 2 3 2 2 2 4 9 10 11 11 10 9 8 8
10 10 9 9 9 7 6 4 5 4 4 3 3 3 4 3 3 3 2 2 2 2 2 2 1 1 1 1 2 3 3 4 4 3 3 8 9 10 11 10 9 8 7
10 9 9 9 9 8 6 5 5 4 4 4 3 4 4 3 3 3 3 2 2 2 2 2 2 1 1 1 1 2 3 3 4 4 3 5 8 9 9 9 9 8 8
10 9 9 9 8 8 7 6 5 4 4 4 3 4 4 4 4 3 3 3 2 2 2 2 2 1 1 1 1 1 2 3 4 4 3 3 3 7 9 8 8 8 8
10 9 8 9 9 8 7 6 5 4 4 4 3 3 4 4 4 3 3 2 2 2 2 2 2 1 1 1 1 1 1 2 4 4 4 3 3 4 6 9 9 8 8
10 10 8 8 8 7 6 5 4 4 4 3 3 3 3 4 4 3 3 2 2 2 2 2 2 2 1 1 1 1 1 2 3 4 4 5 4 4 4 7 10 9 9
9 9 9 7 7 6 5 3 3 3 3 3 3 3 4 3 4 3 3 2 3 2 2 1 2 1 1 1 1 0 1 1 2 2 4 4 4 5 5 5 4 6 10
8 8 8 8 7 6 5 4 4 3 3 2 2 3 4 3 3 4 3 3 3 3 3 2 2 2 1 1 2 2 2 2 1 2 2 2 4 4 4 5 4 3 4
8 7 7 8 8 7 6 5 4 3 2 2 2 2 3 3 3 4 4 3 3 3 2 2 2 2 1 1 2 1 2 3 3 2 1 2 2 2 3 5 4 5 4
7 7 7 7 7 7 6 4 3 2 2 1 1 2 2 4 4 3 4 3 3 3 3 3 3 3 2 0 1 3 2 2 2 3 2 1 1 1 2 2 4 4 5
7 6 5 5 6 5 6 6 6 5 4 3 3 2 2 3 3 3 3 4 3 3 3 3 2 2 3 1 1 1 2 3 2 1 2 2 1 2 2 2 3 3 4
7 6 6 5 5 5 5 6 6 4 3 2 2 3 2 1 2 3 3 3 3 3 3 3 2 2 2 3 2 1 1 1 2 2 2 2 2 2 2 2 2 3 3
6 6 6 6 5 5 5 5 5 6 5 5 4 3 2 1 2 2 3 3 3 3 3 3 3 3 2 2 2 2 2 2 2 2 3 2 2 2 2 2 2 3 3
Wind_Direction
151 157 140 131 125 119 114 110 107 104 103 103 104 105 106 109 109 110 110 110 116 122 124 125 125 123 121 119 121 124 124 126 131 135 136 136 138 139 136 133 130 125 125
150 153 141 134 129 124 119 115 111 108 108 107 106 108 110 111 111 111 111 111 114 121 123 125 124 124 124 123 121 124 127 130 136 139 139 139 140 139 136 132 128 128 130
145 149 143 138 133 129 124 120 116 113 113 111 109 109 111 112 112 111 111 110 109 117 120 123 124 123 123 122 122 124 127 130 135 139 136 135 139 136 136 133 131 133 134
145 147 144 140 135 132 129 126 123 120 118 116 114 113 114 114 113 112 110 108 104 107 114 119 122 121 121 121 122 125 128 131 135 138 134 134 140 141 138 136 137 139 135
143 146 148 142 139 135 134 132 129 126 125 123 121 119 118 117 115 113 111 108 106 106 108 113 113 115 120 123 125 129 132 133 136 134 129 135 138 148 144 143 144 142 139
146 150 150 145 143 139 139 137 135 133 132 131 128 125 123 122 120 118 115 113 110 110 112 115 115 108 110 122 125 128 128 133 132 125 133 140 143 150 150 150 149 146 142
148 152 152 148 146 143 141 141 140 139 137 136 135 132 130 127 124 124 120 118 120 119 119 121 123 118 114 126 132 131 131 138 129 126 140 143 151 153 152 151 149 146 142
149 151 151 151 148 148 147 145 147 146 144 142 141 139 136 132 129 128 128 128 127 127 125 126 131 135 131 132 144 141 139 140 134 130 135 143 154 154 153 149 145 143 140
147 146 148 152 152 152 152 152 152 152 151 148 147 146 145 140 138 139 137 136 138 136 133 127 130 135 132 132 139 146 147 147 138 140 150 149 157 156 153 149 147 145 146
143 146 149 147 150 153 155 155 156 155 154 150 150 152 152 151 151 154 150 148 152 150 148 141 136 136 122 130 139 141 153 152 143 148 148 155 158 158 156 156 156 153 155
147 152 154 151 151 153 156 163 158 157 156 153 156 157 153 147 155 162 164 161 163 160 157 154 151 148 135 128 141 129 118 130 142 148 154 164 165 162 160 161 162 163 163
160 165 165 162 159 158 160 153 153 160 157 154 160 160 152 150 170 161 167 166 166 168 173 173 173 175 123 43 94 115 103 129 140 154 164 169 166 163 160 160 164 168 170
164 165 167 164 162 160 153 151 157 157 154 161 168 164 154 150 160 155 157 169 173 181 188 194 195 157 116 138 134 117 124 132 137 150 162 165 165 166 165 164 167 173 175
158 166 165 163 160 161 153 157 159 160 163 169 171 162 157 152 154 162 175 174 175 181 179 184 176 174 171 163 143 134 130 138 139 146 167 168 169 170 169 171 172 177 180
161 167 167 162 160 160 152 160 159 168 170 170 163 166 160 161 170 171 181 185 188 173 177 171 170 157 147 136 138 142 144 146 146 147 160 173 175 177 176 176 176 179 183
165 169 166 164 162 156 159 166 166 170 166 162 165 169 168 167 170 173 177 184 187 171 172 168 161 155 152 140 133 136 150 155 151 153 163 176 181 180 179 181 182 183 186
168 163 163 164 162 160 163 168 164 167 162 162 169 168 168 165 166 170 169 181 191 173 158 144 138 141 134 126 144 155 158 161 165 170 175 180 186 190 188 188 188 189 191
162 158 159 161 161 164 165 163 161 164 161 165 169 168 168 167 165 162 165 182 183 156 145 143 135 127 124 132 178 194 174 170 182 187 187 191 192 195 197 198 195 196 199
161 156 155 154 160 162 158 155 154 156 160 166 165 169 175 173 168 160 166 173 159 143 148 156 132 138 146 179 203 195 189 190 197 195 196 201 200 197 196 201 201 203 206
157 155 154 153 158 153 145 133 132 142 156 160 169 173 172 179 172 159 156 160 151 143 149 142 142 142 157 177 197 200 252 233 200 201 207 204 203 205 200 201 199 209 213
147 153 159 158 159 153 155 157 156 167 166 165 174 166 164 167 165 156 154 157 153 155 171 168 147 141 145 106 79 15 345 335 265 238 223 205 206 207 198 200 197 199 214
153 156 163 166 165 166 170 171 167 157 160 166 164 152 159 162 164 166 154 160 159 152 153 155 143 142 155 123 123 98 1 342 328 289 259 220 216 205 197 202 197 199 206
162 164 164 168 168 170 164 143 127 103 91 108 156 170 177 174 168 163 166 158 158 157 170 177 162 156 170 185 140 145 153 222 294 313 289 249 222 212 221 209 204 207 207
168 161 154 158 161 163 158 156 155 161 169 185 179 177 177 174 169 170 167 164 166 166 173 189 174 167 157 182 217 186 175 165 170 285 316 306 271 235 232 226 213 208 206
156 154 154 146 151 151 155 168 163 159 165 153 145 155 167 181 179 176 174 172 172 178 182 187 175 173 169 178 184 180 168 145 154 165 263 299 311 274 246 231 218 214 210
145 154 156 148 150 151 156 167 166 157 153 147 156 169 176 177 193 192 181 179 182 186 192 195 190 187 187 184 186 178 170 168 184 177 209 246 266 275 255 233 223 221 214